Hourly Weather Ryazancevo

Today, 3 July, Friday

Time Temperature Precipitation Wind Pressure Humidity
00:00 +17°C° 0 mm 2 mps 740 mmHg 97%
01:00 +16°C° 0 mm 2 mps 740 mmHg 98%
02:00 +16°C° 0 mm 2 mps 740 mmHg 98%
03:00 +16°C° 0 mm 2 mps 740 mmHg 98%
04:00 +17°C° 0 mm 2 mps 740 mmHg 98%
05:00 +17°C° 0 mm 2 mps 740 mmHg 97%
06:00 +18°C° 0 mm 2 mps 741 mmHg 94%
07:00 +19°C° 0 mm 2 mps 741 mmHg 91%
08:00 +21°C° 0 mm 2 mps 742 mmHg 88%
09:00 +21°C° 0 mm 2 mps 742 mmHg 82%
10:00 +23°C° 0 mm 2 mps 742 mmHg 75%
11:00 +24°C° 0 mm 2 mps 742 mmHg 69%
12:00 +24°C° 0.5 mm 3 mps 742 mmHg 72%
13:00 +24°C° 0.5 mm 3 mps 742 mmHg 75%
14:00 +24°C° 0.5 mm 3 mps 742 mmHg 78%
15:00 +24°C° 0.9 mm 3 mps 742 mmHg 82%
16:00 +22°C° 0.9 mm 3 mps 742 mmHg 86%
17:00 +21°C° 0.9 mm 3 mps 742 mmHg 91%
18:00 +21°C° 0.3 mm 3 mps 742 mmHg 92%
19:00 +20°C° 0.3 mm 3 mps 742 mmHg 94%
20:00 +19°C° 0.3 mm 3 mps 742 mmHg 96%
21:00 +19°C° 0.5 mm 2 mps 742 mmHg 96%
22:00 +19°C° 0.5 mm 2 mps 742 mmHg 97%
23:00 +18°C° 0.5 mm 2 mps 742 mmHg 97%

Tomorrow, 4 July, Saturday

Time Temperature Precipitation Wind Pressure Humidity
00:00 +19°C° 0.7 mm 1 mps 742 mmHg 97%
01:00 +19°C° 0.7 mm 1 mps 742 mmHg 98%
02:00 +19°C° 0.7 mm 1 mps 742 mmHg 98%
03:00 +19°C° 0.3 mm 1 mps 742 mmHg 98%
04:00 +19°C° 0.3 mm 1 mps 741 mmHg 98%
05:00 +19°C° 0.3 mm 1 mps 741 mmHg 98%
06:00 +20°C° 0.1 mm 1 mps 741 mmHg 96%
07:00 +21°C° 0.1 mm 1 mps 742 mmHg 94%
08:00 +22°C° 0.1 mm 1 mps 742 mmHg 92%
09:00 +22°C° 0.7 mm 1 mps 742 mmHg 90%
10:00 +23°C° 0.7 mm 1 mps 742 mmHg 88%
11:00 +24°C° 0.7 mm 2 mps 742 mmHg 86%
12:00 +24°C° 0.7 mm 1 mps 742 mmHg 83%
13:00 +25°C° 0.7 mm 1 mps 742 mmHg 80%
14:00 +25°C° 0.7 mm 1 mps 741 mmHg 76%
15:00 +25°C° 0.3 mm 1 mps 741 mmHg 76%
16:00 +25°C° 0.3 mm 1 mps 741 mmHg 76%
17:00 +25°C° 0.3 mm 1 mps 741 mmHg 76%
18:00 +24°C° 0 mm 1 mps 741 mmHg 79%
19:00 +23°C° 0 mm 1 mps 741 mmHg 82%
20:00 +20°C° 0 mm 2 mps 741 mmHg 85%
21:00 +19°C° 0 mm 2 mps 741 mmHg 87%
22:00 +18°C° 0 mm 2 mps 742 mmHg 88%
23:00 +17°C° 0 mm 2 mps 742 mmHg 89%

Day after tomorrow, 5 July, Sunday

Time Temperature Precipitation Wind Pressure Humidity
00:00 +17°C° 0 mm 2 mps 742 mmHg 90%
01:00 +16°C° 0 mm 2 mps 742 mmHg 90%
02:00 +16°C° 0 mm 1 mps 742 mmHg 91%
03:00 +16°C° 0 mm 1 mps 742 mmHg 89%
04:00 +16°C° 0 mm 1 mps 742 mmHg 87%
05:00 +16°C° 0 mm 1 mps 742 mmHg 85%
06:00 +19°C° 0 mm 1 mps 742 mmHg 78%
07:00 +21°C° 0 mm 1 mps 742 mmHg 71%
08:00 +23°C° 0 mm 1 mps 742 mmHg 64%
09:00 +24°C° 0 mm 1 mps 742 mmHg 60%
10:00 +25°C° 0 mm 2 mps 742 mmHg 57%
11:00 +26°C° 0 mm 2 mps 742 mmHg 53%
12:00 +26°C° 0 mm 2 mps 742 mmHg 52%
13:00 +27°C° 0 mm 2 mps 742 mmHg 52%
14:00 +27°C° 0 mm 2 mps 741 mmHg 51%
15:00 +27°C° 0 mm 2 mps 741 mmHg 55%
16:00 +27°C° 0 mm 2 mps 741 mmHg 59%
17:00 +26°C° 0 mm 2 mps 741 mmHg 63%
18:00 +24°C° 0.2 mm 2 mps 741 mmHg 72%
19:00 +21°C° 0.2 mm 2 mps 741 mmHg 80%
20:00 +20°C° 0.2 mm 1 mps 740 mmHg 89%
21:00 +18°C° 0 mm 2 mps 740 mmHg 90%
22:00 +18°C° 0 mm 2 mps 740 mmHg 91%
23:00 +17°C° 0 mm 2 mps 740 mmHg 92%

6 July, Monday

Time Temperature Precipitation Wind Pressure Humidity
00:00 +16°C° 0 mm 2 mps 740 mmHg 94%
01:00 +16°C° 0 mm 2 mps 740 mmHg 95%
02:00 +16°C° 0 mm 2 mps 740 mmHg 96%
03:00 +16°C° 0 mm 2 mps 740 mmHg 95%
04:00 +17°C° 0 mm 3 mps 740 mmHg 95%
05:00 +17°C° 0 mm 3 mps 740 mmHg 94%
06:00 +19°C° 0 mm 3 mps 740 mmHg 87%
07:00 +20°C° 0 mm 4 mps 740 mmHg 81%
08:00 +22°C° 0 mm 5 mps 740 mmHg 74%
09:00 +23°C° 0 mm 5 mps 740 mmHg 71%
10:00 +25°C° 0 mm 5 mps 740 mmHg 68%
11:00 +26°C° 0 mm 6 mps 739 mmHg 66%
12:00 +26°C° 0.1 mm 6 mps 739 mmHg 66%
13:00 +27°C° 0.1 mm 6 mps 739 mmHg 66%
14:00 +27°C° 0.1 mm 6 mps 739 mmHg 66%
15:00 +26°C° 0.2 mm 5 mps 739 mmHg 71%
16:00 +25°C° 0.2 mm 5 mps 739 mmHg 75%
17:00 +25°C° 0.2 mm 4 mps 739 mmHg 80%
18:00 +24°C° 0 mm 3 mps 739 mmHg 83%
19:00 +22°C° 0 mm 3 mps 739 mmHg 86%
20:00 +21°C° 0 mm 3 mps 739 mmHg 89%
21:00 +20°C° 0 mm 3 mps 739 mmHg 92%
22:00 +20°C° 0 mm 2 mps 740 mmHg 94%
23:00 +19°C° 0 mm 2 mps 740 mmHg 97%

7 July, Tuesday

Time Temperature Precipitation Wind Pressure Humidity
00:00 +19°C° 0 mm 2 mps 740 mmHg 97%
01:00 +19°C° 0 mm 2 mps 740 mmHg 97%
02:00 +20°C° 0 mm 1 mps 740 mmHg 97%
03:00 +19°C° 0.1 mm 2 mps 740 mmHg 97%
04:00 +19°C° 0.1 mm 2 mps 740 mmHg 96%
05:00 +19°C° 0.1 mm 2 mps 740 mmHg 96%
06:00 +20°C° 0.7 mm 2 mps 740 mmHg 95%
07:00 +20°C° 0.7 mm 3 mps 740 mmHg 95%
08:00 +21°C° 0.7 mm 3 mps 740 mmHg 95%
09:00 +21°C° 1 mm 3 mps 740 mmHg 93%
10:00 +22°C° 1 mm 3 mps 740 mmHg 92%
11:00 +22°C° 1 mm 3 mps 740 mmHg 91%
12:00 +24°C° 0.7 mm 2 mps 740 mmHg 88%
13:00 +24°C° 0.7 mm 2 mps 740 mmHg 86%
14:00 +25°C° 0.7 mm 2 mps 739 mmHg 83%
15:00 +25°C° 1 mm 2 mps 739 mmHg 85%
16:00 +24°C° 1 mm 2 mps 739 mmHg 88%
17:00 +23°C° 1 mm 2 mps 739 mmHg 90%
18:00 +21°C° 0.5 mm 2 mps 739 mmHg 92%
19:00 +20°C° 0.5 mm 2 mps 739 mmHg 94%
20:00 +19°C° 0.5 mm 2 mps 739 mmHg 97%
21:00 +18°C° 0.1 mm 2 mps 739 mmHg 97%
22:00 +18°C° 0.1 mm 2 mps 739 mmHg 97%
23:00 +19°C° 0.1 mm 1 mps 738 mmHg 97%

8 July, Wednesday

Time Temperature Precipitation Wind Pressure Humidity
00:00 +17°C° 0.9 mm 2 mps 738 mmHg 97%
01:00 +16°C° 0.9 mm 3 mps 738 mmHg 97%
02:00 +15°C° 0.9 mm 4 mps 738 mmHg 96%
03:00 +14°C° 0 mm 4 mps 738 mmHg 96%
04:00 +14°C° 0 mm 4 mps 738 mmHg 95%
05:00 +13°C° 0 mm 4 mps 738 mmHg 94%
06:00 +13°C° 0.1 mm 4 mps 738 mmHg 94%
07:00 +13°C° 0.1 mm 4 mps 738 mmHg 93%
08:00 +14°C° 0.1 mm 3 mps 738 mmHg 93%
09:00 +14°C° 0.6 mm 4 mps 738 mmHg 93%
10:00 +14°C° 0.6 mm 4 mps 738 mmHg 93%
11:00 +14°C° 0.6 mm 4 mps 738 mmHg 92%
12:00 +15°C° 0 mm 4 mps 738 mmHg 90%
13:00 +15°C° 0 mm 4 mps 738 mmHg 88%
14:00 +15°C° 0 mm 4 mps 738 mmHg 86%
15:00 +14°C° 0.3 mm 4 mps 738 mmHg 88%
16:00 +13°C° 0.3 mm 4 mps 737 mmHg 90%
17:00 +13°C° 0.3 mm 4 mps 737 mmHg 92%
18:00 +12°C° 0.3 mm 4 mps 738 mmHg 94%
19:00 +12°C° 0.3 mm 3 mps 738 mmHg 95%
20:00 +12°C° 0.3 mm 3 mps 738 mmHg 96%
21:00 +11°C° 0.3 mm 3 mps 738 mmHg 97%
22:00 +12°C° 0.3 mm 2 mps 738 mmHg 97%
23:00 +12°C° 0.3 mm 2 mps 737 mmHg 97%
Show more